Tracking 25710 objects as of 5-Jul-2022
HD Live streaming from Space Station
objects crossing your sky now

ORESAT0

Track ORESAT0 now!
10-day predictions


NORAD ID: 52017
Int'l Code: 2022-026K
Perigee: 509.4 km
Apogee: 545.5 km
Inclination: 97.5 °
Period: 95.0 minutes
Semi major axis: 6898 km
RCS: Unknown
Launch date: March 15, 2022
Source: United States (US)
Launch site: Kodiak Island, Alaska (KODAK)
aabbcc
Your satellite tracking list
Your tracking list is empty




NASA's NSSDC Master Catalog

Two Line Element Set (TLE):
1 52017U 22026K   22185.92823862  .00003358  00000-0  18091-3 0  9996
2 52017  97.5022 185.5495 0026177 210.1470 149.8257 15.15206357 16836
Source of the keplerian elements: AFSPC